Year,Month,Day,Hour,Minute,Value (Times are PST for windgust in km/hr)
2015,12,08,00,00,3.20
2015,12,08,00,01,3.20
2015,12,08,00,02,3.20
2015,12,08,00,09,1.60
2015,12,08,00,13,1.60
2015,12,08,00,14,1.60
2015,12,08,00,15,3.20
2015,12,08,00,16,3.20
2015,12,08,00,17,3.20
2015,12,08,00,18,4.80
2015,12,08,00,19,3.20
2015,12,08,00,20,3.20
2015,12,08,00,21,3.20
2015,12,08,00,22,1.60
2015,12,08,00,24,1.60
2015,12,08,00,25,1.60
2015,12,08,00,41,1.60
2015,12,08,00,42,1.60
2015,12,08,00,43,1.60
2015,12,08,00,44,1.60
2015,12,08,00,52,1.60
2015,12,08,00,53,3.20
2015,12,08,00,54,1.60
2015,12,08,00,59,1.60
2015,12,08,01,00,1.60
2015,12,08,01,01,1.60
2015,12,08,01,02,3.20
2015,12,08,01,03,3.20
2015,12,08,01,04,3.20
2015,12,08,01,12,1.60
2015,12,08,01,13,3.20
2015,12,08,01,16,1.60
2015,12,08,01,19,1.60
2015,12,08,01,29,3.20
2015,12,08,01,30,3.20
2015,12,08,01,31,3.20
2015,12,08,01,34,1.60
2015,12,08,01,35,3.20
2015,12,08,01,36,1.60
2015,12,08,01,39,1.60
2015,12,08,01,40,1.60
2015,12,08,01,46,1.60
2015,12,08,01,49,1.60
2015,12,08,01,50,1.60
2015,12,08,01,52,1.60
2015,12,08,01,53,1.60
2015,12,08,01,55,1.60
2015,12,08,01,58,3.20
2015,12,08,01,59,3.20
2015,12,08,02,00,3.20
2015,12,08,02,01,1.60
2015,12,08,02,02,1.60
2015,12,08,02,03,3.20
2015,12,08,02,04,4.80
2015,12,08,02,05,3.20
2015,12,08,02,06,4.80
2015,12,08,02,07,4.80
2015,12,08,02,08,4.80
2015,12,08,02,09,3.20
2015,12,08,02,10,1.60
2015,12,08,02,13,1.60
2015,12,08,02,14,3.20
2015,12,08,02,15,1.60
2015,12,08,02,16,3.20
2015,12,08,02,17,4.80
2015,12,08,02,18,4.80
2015,12,08,02,19,4.80
2015,12,08,02,20,3.20
2015,12,08,02,21,3.20
2015,12,08,02,22,1.60
2015,12,08,02,25,1.60
2015,12,08,02,26,3.20
2015,12,08,02,27,1.60
2015,12,08,02,32,1.60
2015,12,08,02,33,1.60
2015,12,08,02,37,1.60
2015,12,08,02,38,3.20
2015,12,08,02,39,3.20
2015,12,08,02,40,3.20
2015,12,08,02,41,3.20
2015,12,08,02,42,1.60
2015,12,08,02,43,3.20
2015,12,08,02,44,1.60
2015,12,08,02,45,1.60
2015,12,08,02,47,1.60
2015,12,08,02,48,1.60
2015,12,08,02,49,1.60
2015,12,08,02,50,3.20
2015,12,08,02,51,1.60
2015,12,08,02,52,1.60
2015,12,08,02,54,1.60
2015,12,08,02,55,1.60
2015,12,08,02,56,1.60
2015,12,08,02,58,1.60
2015,12,08,03,00,1.60
2015,12,08,03,01,1.60
2015,12,08,03,02,3.20
2015,12,08,03,05,1.60
2015,12,08,03,06,1.60
2015,12,08,03,07,3.20
2015,12,08,03,09,1.60
2015,12,08,03,10,1.60
2015,12,08,03,11,1.60
2015,12,08,03,12,3.20
2015,12,08,03,13,3.20
2015,12,08,03,15,1.60
2015,12,08,03,16,3.20
2015,12,08,03,17,3.20
2015,12,08,03,18,9.60
2015,12,08,03,19,9.60
2015,12,08,03,20,4.80
2015,12,08,03,21,1.60
2015,12,08,03,22,4.80
2015,12,08,03,23,3.20
2015,12,08,03,25,3.20
2015,12,08,03,26,1.60
2015,12,08,03,27,1.60
2015,12,08,03,28,3.20
2015,12,08,03,29,6.40
2015,12,08,03,30,4.80
2015,12,08,03,31,4.80
2015,12,08,03,32,4.80
2015,12,08,03,33,4.80
2015,12,08,03,34,4.80
2015,12,08,03,35,4.80
2015,12,08,03,36,3.20
2015,12,08,03,37,1.60
2015,12,08,03,38,1.60
2015,12,08,03,39,3.20
2015,12,08,03,40,1.60
2015,12,08,03,41,1.60
2015,12,08,03,42,3.20
2015,12,08,03,43,3.20
2015,12,08,03,44,3.20
2015,12,08,03,45,3.20
2015,12,08,03,46,1.60
2015,12,08,03,47,1.60
2015,12,08,03,48,3.20
2015,12,08,03,49,1.60
2015,12,08,03,51,3.20
2015,12,08,03,52,1.60
2015,12,08,03,53,1.60
2015,12,08,03,54,3.20
2015,12,08,03,55,4.80
2015,12,08,03,56,1.60
2015,12,08,03,58,1.60
2015,12,08,03,59,1.60
2015,12,08,04,01,1.60
2015,12,08,04,02,1.60
2015,12,08,04,03,1.60
2015,12,08,04,04,3.20
2015,12,08,04,05,3.20
2015,12,08,04,06,1.60
2015,12,08,04,09,3.20
2015,12,08,04,10,3.20
2015,12,08,04,11,3.20
2015,12,08,04,14,1.60
2015,12,08,04,15,1.60
2015,12,08,04,19,1.60
2015,12,08,04,20,1.60
2015,12,08,04,21,1.60
2015,12,08,04,22,1.60
2015,12,08,04,23,3.20
2015,12,08,04,24,1.60
2015,12,08,04,26,1.60
2015,12,08,04,27,3.20
2015,12,08,04,28,1.60
2015,12,08,04,30,4.80
2015,12,08,04,31,3.20
2015,12,08,04,32,1.60
2015,12,08,04,33,1.60
2015,12,08,04,34,1.60
2015,12,08,04,35,1.60
2015,12,08,04,37,1.60
2015,12,08,04,43,1.60
2015,12,08,04,44,1.60
2015,12,08,04,45,3.20
2015,12,08,04,46,3.20
2015,12,08,04,47,3.20
2015,12,08,04,48,1.60
2015,12,08,04,51,1.60
2015,12,08,04,52,3.20
2015,12,08,04,53,1.60
2015,12,08,04,56,1.60
2015,12,08,04,57,1.60
2015,12,08,04,58,3.20
2015,12,08,04,59,3.20
2015,12,08,05,00,3.20
2015,12,08,05,01,3.20
2015,12,08,05,02,1.60
2015,12,08,05,03,3.20
2015,12,08,05,04,1.60
2015,12,08,05,08,3.20
2015,12,08,05,09,4.80
2015,12,08,05,10,3.20
2015,12,08,05,11,4.80
2015,12,08,05,12,4.80
2015,12,08,05,13,4.80
2015,12,08,05,14,3.20
2015,12,08,05,15,4.80
2015,12,08,05,16,4.80
2015,12,08,05,17,1.60
2015,12,08,05,18,1.60
2015,12,08,05,19,1.60
2015,12,08,05,20,3.20
2015,12,08,05,21,3.20
2015,12,08,05,22,1.60
2015,12,08,05,23,1.60
2015,12,08,05,24,1.60
2015,12,08,05,28,3.20
2015,12,08,05,29,4.80
2015,12,08,05,30,6.40
2015,12,08,05,31,3.20
2015,12,08,05,32,1.60
2015,12,08,05,33,3.20
2015,12,08,05,34,3.20
2015,12,08,05,35,4.80
2015,12,08,05,36,4.80
2015,12,08,05,37,4.80
2015,12,08,05,38,8.10
2015,12,08,05,39,6.40
2015,12,08,05,40,4.80
2015,12,08,05,41,3.20
2015,12,08,05,42,1.60
2015,12,08,05,43,3.20
2015,12,08,05,44,4.80
2015,12,08,05,45,3.20
2015,12,08,05,46,3.20
2015,12,08,05,47,6.40
2015,12,08,05,48,6.40
2015,12,08,05,49,9.60
2015,12,08,05,50,6.40
2015,12,08,05,51,6.40
2015,12,08,05,52,1.60
2015,12,08,05,53,4.80
2015,12,08,05,54,9.60
2015,12,08,05,55,8.10
2015,12,08,05,56,6.40
2015,12,08,05,57,8.10
2015,12,08,05,58,4.80
2015,12,08,05,59,4.80
2015,12,08,06,00,4.80
2015,12,08,06,01,4.80
2015,12,08,06,02,3.20
2015,12,08,06,03,3.20
2015,12,08,06,04,3.20
2015,12,08,06,05,3.20
2015,12,08,06,06,3.20
2015,12,08,06,07,3.20
2015,12,08,06,08,3.20
2015,12,08,06,09,3.20
2015,12,08,06,10,4.80
2015,12,08,06,11,3.20
2015,12,08,06,12,3.20
2015,12,08,06,13,3.20
2015,12,08,06,16,1.60
2015,12,08,06,17,1.60
2015,12,08,06,20,1.60
2015,12,08,06,21,3.20
2015,12,08,06,22,3.20
2015,12,08,06,23,3.20
2015,12,08,06,24,3.20
2015,12,08,06,28,1.60
2015,12,08,06,29,3.20
2015,12,08,06,30,4.80
2015,12,08,06,31,6.40
2015,12,08,06,32,6.40
2015,12,08,06,33,4.80
2015,12,08,06,34,4.80
2015,12,08,06,35,4.80
2015,12,08,06,36,3.20
2015,12,08,06,37,3.20
2015,12,08,06,38,3.20
2015,12,08,06,40,1.60
2015,12,08,06,41,3.20
2015,12,08,06,42,3.20
2015,12,08,06,43,3.20
2015,12,08,06,44,4.80
2015,12,08,06,45,4.80
2015,12,08,06,46,1.60
2015,12,08,06,47,1.60
2015,12,08,06,48,1.60
2015,12,08,06,49,1.60
2015,12,08,06,50,3.20
2015,12,08,06,51,4.80
2015,12,08,06,52,4.80
2015,12,08,06,53,4.80
2015,12,08,06,54,1.60
2015,12,08,06,55,1.60
2015,12,08,06,56,3.20
2015,12,08,06,57,3.20
2015,12,08,06,58,3.20
2015,12,08,06,59,1.60
2015,12,08,07,00,3.20
2015,12,08,07,01,8.10
2015,12,08,07,02,9.60
2015,12,08,07,03,6.40
2015,12,08,07,04,9.60
2015,12,08,07,05,6.40
2015,12,08,07,06,6.40
2015,12,08,07,07,4.80
2015,12,08,07,08,4.80
2015,12,08,07,09,4.80
2015,12,08,07,10,6.40
2015,12,08,07,11,6.40
2015,12,08,07,12,6.40
2015,12,08,07,14,1.60
2015,12,08,07,16,8.10
2015,12,08,07,17,8.10
2015,12,08,07,18,4.80
2015,12,08,07,19,4.80
2015,12,08,07,20,3.20
2015,12,08,07,21,3.20
2015,12,08,07,22,3.20
2015,12,08,07,23,3.20
2015,12,08,07,24,1.60
2015,12,08,07,25,3.20
2015,12,08,07,26,4.80
2015,12,08,07,27,6.40
2015,12,08,07,28,3.20
2015,12,08,07,29,1.60
2015,12,08,07,30,3.20
2015,12,08,07,31,4.80
2015,12,08,07,32,3.20
2015,12,08,07,33,4.80
2015,12,08,07,34,4.80
2015,12,08,07,35,4.80
2015,12,08,07,36,6.40
2015,12,08,07,37,3.20
2015,12,08,07,38,8.10
2015,12,08,07,39,8.10
2015,12,08,07,40,6.40
2015,12,08,07,41,6.40
2015,12,08,07,42,4.80
2015,12,08,07,43,3.20
2015,12,08,07,45,3.20
2015,12,08,07,46,3.20
2015,12,08,07,47,4.80
2015,12,08,07,48,4.80
2015,12,08,07,49,8.10
2015,12,08,07,50,9.60
2015,12,08,07,51,11.30
2015,12,08,07,52,4.80
2015,12,08,07,53,4.80
2015,12,08,07,54,4.80
2015,12,08,07,56,4.80
2015,12,08,07,57,3.20
2015,12,08,07,58,3.20
2015,12,08,07,59,3.20
2015,12,08,08,00,3.20
2015,12,08,08,01,12.90
2015,12,08,08,02,14.50
2015,12,08,08,03,14.50
2015,12,08,08,04,14.50
2015,12,08,08,05,12.90
2015,12,08,08,06,12.90
2015,12,08,08,07,17.70
2015,12,08,08,08,9.60
2015,12,08,08,09,11.30
2015,12,08,08,10,35.40
2015,12,08,08,11,14.50
2015,12,08,08,12,16.10
2015,12,08,08,13,8.10
2015,12,08,08,14,12.90
2015,12,08,08,15,11.30
2015,12,08,08,16,8.10
2015,12,08,08,17,11.30
2015,12,08,08,18,8.10
2015,12,08,08,19,6.40
2015,12,08,08,20,6.40
2015,12,08,08,21,9.60
2015,12,08,08,22,11.30
2015,12,08,08,23,20.90
2015,12,08,08,24,24.20
2015,12,08,08,25,24.20
2015,12,08,08,26,27.40
2015,12,08,08,27,20.90
2015,12,08,08,28,24.20
2015,12,08,08,29,6.40
2015,12,08,08,30,3.20
2015,12,08,08,31,16.10
2015,12,08,08,32,9.60
2015,12,08,08,33,4.80
2015,12,08,08,34,4.80
2015,12,08,08,35,4.80
2015,12,08,08,36,4.80
2015,12,08,08,37,4.80
2015,12,08,08,38,6.40
2015,12,08,08,39,4.80
2015,12,08,08,40,1.60
2015,12,08,08,41,6.40
2015,12,08,08,42,8.10
2015,12,08,08,43,8.10
2015,12,08,08,44,8.10
2015,12,08,08,45,4.80
2015,12,08,08,46,3.20
2015,12,08,08,47,4.80
2015,12,08,08,48,3.20
2015,12,08,08,49,1.60
2015,12,08,08,50,3.20
2015,12,08,08,51,6.40
2015,12,08,08,52,8.10
2015,12,08,08,53,6.40
2015,12,08,08,54,4.80
2015,12,08,08,55,4.80
2015,12,08,08,57,3.20
2015,12,08,08,58,3.20
2015,12,08,08,59,3.20
2015,12,08,09,00,9.60
2015,12,08,09,01,9.60
2015,12,08,09,02,8.10
2015,12,08,09,03,14.50
2015,12,08,09,04,32.20
2015,12,08,09,05,20.90
2015,12,08,09,06,24.20
2015,12,08,09,07,22.50
2015,12,08,09,08,16.10
2015,12,08,09,09,6.40
2015,12,08,09,10,16.10
2015,12,08,09,11,12.90
2015,12,08,09,12,12.90
2015,12,08,09,13,20.90
2015,12,08,09,14,17.70
2015,12,08,09,15,16.10
2015,12,08,09,16,12.90
2015,12,08,09,17,11.30
2015,12,08,09,18,17.70
2015,12,08,09,19,12.90
2015,12,08,09,20,3.20
2015,12,08,09,21,3.20
2015,12,08,09,22,4.80
2015,12,08,09,23,6.40
2015,12,08,09,24,4.80
2015,12,08,09,25,3.20
2015,12,08,09,26,1.60
2015,12,08,09,27,12.90
2015,12,08,09,28,12.90
2015,12,08,09,29,8.10
2015,12,08,09,30,6.40
2015,12,08,09,31,8.10
2015,12,08,09,32,8.10
2015,12,08,09,33,4.80
2015,12,08,09,34,4.80
2015,12,08,09,35,3.20
2015,12,08,09,36,4.80
2015,12,08,09,37,6.40
2015,12,08,09,38,6.40
2015,12,08,09,39,1.60
2015,12,08,09,42,3.20
2015,12,08,09,43,1.60
2015,12,08,09,44,3.20
2015,12,08,09,45,6.40
2015,12,08,09,46,9.60
2015,12,08,09,47,9.60
2015,12,08,09,48,9.60
2015,12,08,09,49,4.80
2015,12,08,09,50,9.60
2015,12,08,09,51,8.10
2015,12,08,09,52,6.40
2015,12,08,09,53,4.80
2015,12,08,09,54,4.80
2015,12,08,09,55,3.20
2015,12,08,09,56,3.20
2015,12,08,09,58,1.60
2015,12,08,09,59,4.80
2015,12,08,10,00,6.40
2015,12,08,10,01,3.20
2015,12,08,10,02,1.60
2015,12,08,10,03,1.60
2015,12,08,10,04,3.20
2015,12,08,10,05,3.20
2015,12,08,10,06,4.80
2015,12,08,10,07,3.20
2015,12,08,10,08,6.40
2015,12,08,10,09,6.40
2015,12,08,10,10,6.40
2015,12,08,10,11,11.30
2015,12,08,10,12,17.70
2015,12,08,10,13,17.70
2015,12,08,10,14,16.10
2015,12,08,10,15,9.60
2015,12,08,10,16,8.10
2015,12,08,10,17,12.90
2015,12,08,10,18,14.50
2015,12,08,10,19,9.60
2015,12,08,10,20,12.90
2015,12,08,10,21,16.10
2015,12,08,10,22,8.10
2015,12,08,10,23,11.30
2015,12,08,10,24,9.60
2015,12,08,10,25,8.10
2015,12,08,10,26,9.60
2015,12,08,10,27,12.90
2015,12,08,10,28,20.90
2015,12,08,10,29,17.70
2015,12,08,10,30,11.30
2015,12,08,10,31,11.30
2015,12,08,10,32,11.30
2015,12,08,10,33,14.50
2015,12,08,10,34,12.90
2015,12,08,10,35,8.10
2015,12,08,10,36,4.80
2015,12,08,10,37,6.40
2015,12,08,10,38,11.30
2015,12,08,10,39,14.50
2015,12,08,10,40,6.40
2015,12,08,10,41,11.30
2015,12,08,10,42,6.40
2015,12,08,10,43,4.80
2015,12,08,10,44,4.80
2015,12,08,10,45,3.20
2015,12,08,10,46,3.20
2015,12,08,10,47,4.80
2015,12,08,10,48,11.30
2015,12,08,10,49,8.10
2015,12,08,10,50,14.50
2015,12,08,10,51,8.10
2015,12,08,10,52,8.10
2015,12,08,10,53,6.40
2015,12,08,10,54,1.60
2015,12,08,10,55,3.20
2015,12,08,10,56,4.80
2015,12,08,10,57,6.40
2015,12,08,10,58,4.80
2015,12,08,10,59,6.40
2015,12,08,11,00,8.10
2015,12,08,11,01,6.40
2015,12,08,11,02,4.80
2015,12,08,11,03,11.30
2015,12,08,11,04,8.10
2015,12,08,11,05,9.60
2015,12,08,11,06,11.30
2015,12,08,11,07,11.30
2015,12,08,11,08,11.30
2015,12,08,11,09,11.30
2015,12,08,11,10,6.40
2015,12,08,11,11,4.80
2015,12,08,11,12,4.80
2015,12,08,11,13,4.80
2015,12,08,11,14,4.80
2015,12,08,11,15,4.80
2015,12,08,11,16,4.80
2015,12,08,11,17,3.20
2015,12,08,11,18,4.80
2015,12,08,11,19,6.40
2015,12,08,11,20,4.80
2015,12,08,11,21,8.10
2015,12,08,11,22,9.60
2015,12,08,11,23,9.60
2015,12,08,11,24,9.60
2015,12,08,11,25,4.80
2015,12,08,11,26,16.10
2015,12,08,11,27,11.30
2015,12,08,11,28,17.70
2015,12,08,11,29,6.40
2015,12,08,11,30,4.80
2015,12,08,11,31,4.80
2015,12,08,11,32,4.80
2015,12,08,11,33,3.20
2015,12,08,11,34,4.80
2015,12,08,11,35,12.90
2015,12,08,11,36,9.60
2015,12,08,11,37,3.20
2015,12,08,11,38,3.20
2015,12,08,11,39,4.80
2015,12,08,11,40,6.40
2015,12,08,11,41,8.10
2015,12,08,11,42,8.10
2015,12,08,11,43,4.80
2015,12,08,11,44,4.80
2015,12,08,11,45,4.80
2015,12,08,11,46,3.20
2015,12,08,11,47,3.20
2015,12,08,11,48,1.60
2015,12,08,11,49,4.80
2015,12,08,11,50,3.20
2015,12,08,11,51,6.40
2015,12,08,11,52,8.10
2015,12,08,11,53,16.10
2015,12,08,11,54,8.10
2015,12,08,11,55,8.10
2015,12,08,11,56,6.40
2015,12,08,11,57,8.10
2015,12,08,11,58,8.10
2015,12,08,11,59,8.10
2015,12,08,12,00,8.10
2015,12,08,12,01,3.20
2015,12,08,12,02,1.60
2015,12,08,12,03,4.80
2015,12,08,12,04,4.80
2015,12,08,12,05,4.80
2015,12,08,12,06,3.20
2015,12,08,12,07,4.80
2015,12,08,12,08,6.40
2015,12,08,12,09,6.40
2015,12,08,12,10,1.60
2015,12,08,12,11,3.20
2015,12,08,12,12,1.60
2015,12,08,12,14,1.60
2015,12,08,12,15,1.60
2015,12,08,12,16,3.20
2015,12,08,12,17,3.20
2015,12,08,12,18,3.20
2015,12,08,12,19,3.20
2015,12,08,12,20,4.80
2015,12,08,12,21,4.80
2015,12,08,12,22,1.60
2015,12,08,12,23,3.20
2015,12,08,12,24,4.80
2015,12,08,12,25,4.80
2015,12,08,12,26,4.80
2015,12,08,12,27,4.80
2015,12,08,12,28,6.40
2015,12,08,12,29,8.10
2015,12,08,12,30,9.60
2015,12,08,12,31,9.60
2015,12,08,12,32,9.60
2015,12,08,12,33,9.60
2015,12,08,12,34,8.10
2015,12,08,12,35,8.10
2015,12,08,12,36,8.10
2015,12,08,12,37,3.20
2015,12,08,12,38,3.20
2015,12,08,12,39,3.20
2015,12,08,12,40,8.10
2015,12,08,12,41,3.20
2015,12,08,12,42,4.80
2015,12,08,12,43,4.80
2015,12,08,12,44,1.60
2015,12,08,12,45,8.10
2015,12,08,12,46,4.80
2015,12,08,12,47,3.20
2015,12,08,12,48,4.80
2015,12,08,12,49,4.80
2015,12,08,12,50,4.80
2015,12,08,12,51,4.80
2015,12,08,12,52,3.20
2015,12,08,12,53,3.20
2015,12,08,12,54,4.80
2015,12,08,12,55,4.80
2015,12,08,12,56,4.80
2015,12,08,12,57,4.80
2015,12,08,12,58,3.20
2015,12,08,12,59,4.80
2015,12,08,13,00,4.80
2015,12,08,13,01,8.10
2015,12,08,13,02,4.80
2015,12,08,13,03,4.80
2015,12,08,13,04,3.20
2015,12,08,13,05,4.80
2015,12,08,13,06,4.80
2015,12,08,13,07,3.20
2015,12,08,13,08,1.60
2015,12,08,13,09,1.60
2015,12,08,13,11,1.60
2015,12,08,13,13,1.60
2015,12,08,13,14,3.20
2015,12,08,13,15,8.10
2015,12,08,13,16,8.10
2015,12,08,13,17,4.80
2015,12,08,13,18,4.80
2015,12,08,13,19,4.80
2015,12,08,13,20,1.60
2015,12,08,13,21,4.80
2015,12,08,13,22,4.80
2015,12,08,13,23,6.40
2015,12,08,13,24,3.20
2015,12,08,13,25,3.20
2015,12,08,13,26,3.20
2015,12,08,13,27,3.20
2015,12,08,13,28,3.20
2015,12,08,13,29,6.40
2015,12,08,13,30,4.80
2015,12,08,13,31,3.20
2015,12,08,13,32,4.80
2015,12,08,13,33,4.80
2015,12,08,13,34,8.10
2015,12,08,13,35,6.40
2015,12,08,13,36,8.10
2015,12,08,13,37,11.30
2015,12,08,13,38,11.30
2015,12,08,13,39,4.80
2015,12,08,13,40,3.20
2015,12,08,13,41,4.80
2015,12,08,13,42,1.60
2015,12,08,13,43,4.80
2015,12,08,13,44,3.20
2015,12,08,13,45,3.20
2015,12,08,13,46,3.20
2015,12,08,13,47,8.10
2015,12,08,13,48,4.80
2015,12,08,13,49,4.80
2015,12,08,13,50,4.80
2015,12,08,13,51,4.80
2015,12,08,13,52,4.80
2015,12,08,13,53,4.80
2015,12,08,13,54,3.20
2015,12,08,13,55,3.20
2015,12,08,13,56,4.80
2015,12,08,13,57,6.40
2015,12,08,13,58,4.80
2015,12,08,13,59,6.40
2015,12,08,14,00,3.20
2015,12,08,14,01,3.20
2015,12,08,14,02,3.20
2015,12,08,14,03,4.80
2015,12,08,14,04,4.80
2015,12,08,14,05,4.80
2015,12,08,14,06,4.80
2015,12,08,14,07,4.80
2015,12,08,14,08,3.20
2015,12,08,14,09,3.20
2015,12,08,14,10,4.80
2015,12,08,14,11,3.20
2015,12,08,14,12,8.10
2015,12,08,14,13,4.80
2015,12,08,14,14,4.80
2015,12,08,14,15,4.80
2015,12,08,14,16,4.80
2015,12,08,14,17,1.60
2015,12,08,14,18,1.60
2015,12,08,14,19,3.20
2015,12,08,14,20,4.80
2015,12,08,14,21,4.80
2015,12,08,14,22,6.40
2015,12,08,14,23,4.80
2015,12,08,14,24,8.10
2015,12,08,14,25,4.80
2015,12,08,14,26,1.60
2015,12,08,14,27,3.20
2015,12,08,14,28,3.20
2015,12,08,14,29,3.20
2015,12,08,14,30,3.20
2015,12,08,14,31,1.60
2015,12,08,14,32,3.20
2015,12,08,14,33,3.20
2015,12,08,14,34,4.80
2015,12,08,14,35,4.80
2015,12,08,14,36,4.80
2015,12,08,14,37,4.80
2015,12,08,14,38,3.20
2015,12,08,14,39,3.20
2015,12,08,14,40,1.60
2015,12,08,14,41,1.60
2015,12,08,14,47,3.20
2015,12,08,15,02,1.60
2015,12,08,15,03,1.60
2015,12,08,15,04,1.60
2015,12,08,15,08,1.60
2015,12,08,15,11,1.60
2015,12,08,15,12,1.60
2015,12,08,15,13,1.60
2015,12,08,15,14,1.60
2015,12,08,15,21,1.60
2015,12,08,15,22,1.60
2015,12,08,15,24,1.60
2015,12,08,15,25,3.20
2015,12,08,15,26,3.20
2015,12,08,15,27,1.60
2015,12,08,15,28,1.60
2015,12,08,15,29,1.60
2015,12,08,15,32,1.60
2015,12,08,15,33,1.60
2015,12,08,15,34,1.60
2015,12,08,15,35,3.20
2015,12,08,15,36,1.60
2015,12,08,15,37,1.60
2015,12,08,15,38,1.60
2015,12,08,15,49,1.60
2015,12,08,15,50,1.60
2015,12,08,15,52,1.60
2015,12,08,15,54,1.60
2015,12,08,15,55,1.60
2015,12,08,15,56,1.60
2015,12,08,15,57,1.60
2015,12,08,15,58,1.60
2015,12,08,15,59,3.20
2015,12,08,16,00,1.60
2015,12,08,16,01,1.60
2015,12,08,16,02,1.60
2015,12,08,16,03,4.80
2015,12,08,16,04,1.60
2015,12,08,16,05,1.60
2015,12,08,16,06,3.20
2015,12,08,16,07,3.20
2015,12,08,16,08,3.20
2015,12,08,16,09,3.20
2015,12,08,16,10,3.20
2015,12,08,16,11,1.60
2015,12,08,16,12,1.60
2015,12,08,16,17,1.60
2015,12,08,16,18,1.60
2015,12,08,16,19,3.20
2015,12,08,16,20,3.20
2015,12,08,16,21,1.60
2015,12,08,16,24,1.60
2015,12,08,16,25,3.20
2015,12,08,16,26,3.20
2015,12,08,16,27,3.20
2015,12,08,16,29,1.60
2015,12,08,16,30,3.20
2015,12,08,16,31,1.60
2015,12,08,16,32,3.20
2015,12,08,16,33,3.20
2015,12,08,16,34,3.20
2015,12,08,16,35,1.60
2015,12,08,16,36,4.80
2015,12,08,16,37,3.20
2015,12,08,16,38,3.20
2015,12,08,16,39,1.60
2015,12,08,16,40,1.60
2015,12,08,16,42,1.60
2015,12,08,16,47,3.20
2015,12,08,16,48,4.80
2015,12,08,16,49,1.60
2015,12,08,16,50,1.60
2015,12,08,16,51,1.60
2015,12,08,16,52,3.20
2015,12,08,16,53,4.80
2015,12,08,16,54,4.80
2015,12,08,16,55,4.80
2015,12,08,16,56,3.20
2015,12,08,16,57,1.60
2015,12,08,16,58,1.60
2015,12,08,17,00,1.60
2015,12,08,17,01,1.60
2015,12,08,17,21,1.60
2015,12,08,17,22,1.60
2015,12,08,17,25,1.60
2015,12,08,17,29,1.60
2015,12,08,17,30,1.60
2015,12,08,17,31,1.60
2015,12,08,17,32,3.20
2015,12,08,17,33,1.60
2015,12,08,17,34,1.60
2015,12,08,17,39,1.60
2015,12,08,17,40,1.60
2015,12,08,17,41,1.60
2015,12,08,17,42,1.60
2015,12,08,17,43,1.60
2015,12,08,17,44,1.60
2015,12,08,17,48,1.60
2015,12,08,17,49,1.60
2015,12,08,17,50,3.20
2015,12,08,17,51,3.20
2015,12,08,17,52,1.60
2015,12,08,17,53,1.60
2015,12,08,17,54,3.20
2015,12,08,17,55,4.80
2015,12,08,17,56,4.80
2015,12,08,17,57,8.10
2015,12,08,17,58,6.40
2015,12,08,17,59,4.80
2015,12,08,18,00,6.40
2015,12,08,18,01,8.10
2015,12,08,18,02,6.40
2015,12,08,18,03,6.40
2015,12,08,18,04,8.10
2015,12,08,18,05,6.40
2015,12,08,18,06,4.80
2015,12,08,18,07,6.40
2015,12,08,18,08,6.40
2015,12,08,18,09,3.20
2015,12,08,18,10,4.80
2015,12,08,18,11,4.80
2015,12,08,18,12,3.20
2015,12,08,18,13,3.20
2015,12,08,18,14,1.60
2015,12,08,18,15,1.60
2015,12,08,18,16,3.20
2015,12,08,18,17,3.20
2015,12,08,18,18,3.20
2015,12,08,18,19,1.60
2015,12,08,18,20,1.60
2015,12,08,18,26,1.60
2015,12,08,18,36,1.60
2015,12,08,18,37,1.60
2015,12,08,18,38,3.20
2015,12,08,18,39,3.20
2015,12,08,18,40,1.60
2015,12,08,18,41,1.60
2015,12,08,18,48,1.60
2015,12,08,18,49,3.20
2015,12,08,18,50,3.20
2015,12,08,18,51,3.20
2015,12,08,18,52,3.20
2015,12,08,18,53,4.80
2015,12,08,18,54,4.80
2015,12,08,18,55,4.80
2015,12,08,18,56,3.20
2015,12,08,18,57,3.20
2015,12,08,18,58,3.20
2015,12,08,18,59,1.60
2015,12,08,19,02,1.60
2015,12,08,19,03,1.60
2015,12,08,19,04,1.60
2015,12,08,19,05,1.60
2015,12,08,19,06,1.60
2015,12,08,19,09,3.20
2015,12,08,19,10,3.20
2015,12,08,19,11,3.20
2015,12,08,19,12,1.60
2015,12,08,19,18,3.20
2015,12,08,19,19,4.80
2015,12,08,19,20,4.80
2015,12,08,19,21,1.60
2015,12,08,19,22,3.20
2015,12,08,19,23,3.20
2015,12,08,19,24,1.60
2015,12,08,19,25,1.60
2015,12,08,19,29,3.20
2015,12,08,19,30,3.20
2015,12,08,19,31,3.20
2015,12,08,19,32,1.60
2015,12,08,19,33,3.20
2015,12,08,19,34,4.80
2015,12,08,19,35,4.80
2015,12,08,19,36,3.20
2015,12,08,19,37,3.20
2015,12,08,19,38,3.20
2015,12,08,19,39,1.60
2015,12,08,19,40,1.60
2015,12,08,19,41,3.20
2015,12,08,19,42,3.20
2015,12,08,19,43,1.60
2015,12,08,19,44,1.60
2015,12,08,19,51,1.60
2015,12,08,19,52,3.20
2015,12,08,19,53,3.20
2015,12,08,19,54,3.20
2015,12,08,19,55,3.20
2015,12,08,19,56,3.20
2015,12,08,19,57,3.20
2015,12,08,19,58,3.20
2015,12,08,19,59,1.60
2015,12,08,20,01,1.60
2015,12,08,20,02,3.20
2015,12,08,20,03,3.20
2015,12,08,20,04,1.60
2015,12,08,20,05,1.60
2015,12,08,20,06,1.60
2015,12,08,20,07,3.20
2015,12,08,20,08,3.20
2015,12,08,20,16,1.60
2015,12,08,20,17,3.20
2015,12,08,20,18,3.20
2015,12,08,20,19,3.20
2015,12,08,20,20,3.20
2015,12,08,20,21,1.60
2015,12,08,20,22,1.60
2015,12,08,20,24,1.60
2015,12,08,20,25,1.60
2015,12,08,20,26,1.60
2015,12,08,20,29,4.80
2015,12,08,20,30,4.80
2015,12,08,20,31,4.80
2015,12,08,20,32,4.80
2015,12,08,20,33,4.80
2015,12,08,20,34,4.80
2015,12,08,20,35,4.80
2015,12,08,20,36,4.80
2015,12,08,20,37,6.40
2015,12,08,20,38,4.80
2015,12,08,20,39,1.60
2015,12,08,20,41,3.20
2015,12,08,20,42,4.80
2015,12,08,20,43,4.80
2015,12,08,20,44,4.80
2015,12,08,20,45,3.20
2015,12,08,20,46,1.60
2015,12,08,20,50,1.60
2015,12,08,20,51,1.60
2015,12,08,20,52,3.20
2015,12,08,20,53,1.60
2015,12,08,20,54,1.60
2015,12,08,20,55,1.60
2015,12,08,20,56,1.60
2015,12,08,20,57,1.60
2015,12,08,20,58,1.60
2015,12,08,21,01,1.60
2015,12,08,21,02,3.20
2015,12,08,21,03,1.60
2015,12,08,21,04,1.60
2015,12,08,21,06,3.20
2015,12,08,21,07,4.80
2015,12,08,21,08,4.80
2015,12,08,21,09,3.20
2015,12,08,21,10,1.60
2015,12,08,21,11,3.20
2015,12,08,21,12,4.80
2015,12,08,21,13,4.80
2015,12,08,21,14,1.60
2015,12,08,21,15,1.60
2015,12,08,21,16,1.60
2015,12,08,21,19,1.60
2015,12,08,21,20,3.20
2015,12,08,21,21,1.60
2015,12,08,21,22,1.60
2015,12,08,21,23,3.20
2015,12,08,21,24,3.20
2015,12,08,21,25,3.20
2015,12,08,21,26,1.60
2015,12,08,21,27,3.20
2015,12,08,21,28,3.20
2015,12,08,21,29,3.20
2015,12,08,21,30,3.20
2015,12,08,21,31,1.60
2015,12,08,21,33,1.60
2015,12,08,21,34,1.60
2015,12,08,21,35,1.60
2015,12,08,21,36,1.60
2015,12,08,21,42,3.20
2015,12,08,21,43,1.60
2015,12,08,21,45,1.60
2015,12,08,21,46,3.20
2015,12,08,21,47,3.20
2015,12,08,21,48,1.60
2015,12,08,21,49,3.20
2015,12,08,21,50,3.20
2015,12,08,21,51,3.20
2015,12,08,21,52,3.20
2015,12,08,21,53,3.20
2015,12,08,21,54,8.10
2015,12,08,21,55,6.40
2015,12,08,21,56,4.80
2015,12,08,21,57,4.80
2015,12,08,21,58,3.20
2015,12,08,21,59,1.60
2015,12,08,22,00,1.60
2015,12,08,22,01,1.60
2015,12,08,22,02,1.60
2015,12,08,22,03,3.20
2015,12,08,22,04,3.20
2015,12,08,22,05,3.20
2015,12,08,22,06,3.20
2015,12,08,22,07,3.20
2015,12,08,22,08,3.20
2015,12,08,22,09,4.80
2015,12,08,22,10,8.10
2015,12,08,22,11,8.10
2015,12,08,22,12,6.40
2015,12,08,22,13,8.10
2015,12,08,22,14,3.20
2015,12,08,22,15,3.20
2015,12,08,22,16,3.20
2015,12,08,22,27,3.20
2015,12,08,22,28,4.80
2015,12,08,22,29,6.40
2015,12,08,22,30,9.60
2015,12,08,22,31,11.30
2015,12,08,22,32,9.60
2015,12,08,22,33,9.60
2015,12,08,22,34,9.60
2015,12,08,22,35,4.80
2015,12,08,22,36,4.80
2015,12,08,22,37,4.80
2015,12,08,22,38,3.20
2015,12,08,22,39,4.80
2015,12,08,22,40,4.80
2015,12,08,22,41,4.80
2015,12,08,22,42,3.20
2015,12,08,22,43,1.60
2015,12,08,22,45,4.80
2015,12,08,22,46,4.80
2015,12,08,22,47,4.80
2015,12,08,22,48,3.20
2015,12,08,22,49,1.60
2015,12,08,22,50,1.60
2015,12,08,22,51,4.80
2015,12,08,22,52,4.80
2015,12,08,22,53,1.60
2015,12,08,22,54,1.60
2015,12,08,22,59,1.60
2015,12,08,23,01,6.40
2015,12,08,23,02,6.40
2015,12,08,23,03,4.80
2015,12,08,23,04,9.60
2015,12,08,23,05,9.60
2015,12,08,23,06,12.90
2015,12,08,23,07,12.90
2015,12,08,23,08,9.60
2015,12,08,23,09,8.10
2015,12,08,23,10,11.30
2015,12,08,23,11,9.60